TIBA-1 1 44800U 19080A 21062.83722150 .00000146 00000-0 00000-0 0 9994 2 44800 0.0556 1.5520 0001860 346.7471 150.3755 1.00271755 4697 INMARSAT GX5 1 44801U 19080B 21062.61703803 .00000065 00000-0 00000-0 0 9995 2 44801 0.0420 339.0399 0002034 20.0147 35.6612 1.00273353 4735 ARIANE 5 R/B 1 44802U 19080C 21062.30041288 .00001617 00000-0 35986-3 0 9992 2 44802 5.8050 11.0228 7240614 214.3375 64.5394 2.33886736 10751 ARIANE 5 DEB [SYLDA] 1 44803U 19080D 21062.85922391 .00009694 00000-0 24650-2 0 9994 2 44803 5.6042 1.5034 7034842 235.6604 37.4767 2.59489234 11254